Terug naar catalogus

STARLINK-2081

ActiefCommunicatieVLEO
NORAD 47366·PAYLOAD·🇺🇸 United States

Gelanceerd Jan 20, 2021 vanaf Cape Canaveral Space Force Station

Loading…

Volgende Passages (komende 24 uur)

TLE

VersSource: CelesTrak SupGP

Epoch: Sep 15, 2026, 02:17 UTC

1 47366C 21005T   26258.09562500 -.00012032  00000+0 -38699-3 0  2589
2 47366  53.1594 261.1371 0001265 101.4901 322.2384 15.31701807    14

Volg STARLINK-2081 in realtime met AllMySat

Download on the App Store